Location: DARK SKY Beskydy - Park tmavé oblohy, www.darkskybeskydy.cz
(49.4926°N, 18.5016°E)
Time: 09:29:46
(UTC+02:00)

Transit 4A - Pass Details

Date: 26 February 2024
Orbit: 871 x 971 km, 66.8° (Epoch: 24 April)

Event Time Altitude Azimuth Distance (km) Brightness Sun altitude
Exits shadow 01:43:03 19° 33° (NNE) 2,043 10.1 -44.0°
Drops below altitude 10° 01:44:32 10° 35° (NE) 2,588 10.8 -43.9°
Sets 01:47:02 0° 36° (NE) 3,518 11.7 -43.7°
